Pensacola NAS, FL

2:21 PM CDT on April 25, 2017 (GMT -0500)
Pensacola Naval Air Station

Weather History for KNPA - January, 2014

Change the Weather History Date:

Monday, January 6, 2014

  Actual Average Record
Temperature  
Mean Temperature 38 °F -  
Max Temperature 50 °F 59 °F 63 °F (2015)
Min Temperature 25 °F 40 °F 36 °F (2015)
Degree Days  
Heating Degree Days 27    
Moisture  
Dew Point 20 °F    
Average Humidity 56    
Maximum Humidity 89    
Minimum Humidity 27    
Precipitation  
Precipitation 0.00 in - - ()
Sea Level Pressure  
Sea Level Pressure 30.29 in    
Wind  
Wind Speed 17 mph (NNW)    
Max Wind Speed 24 mph    
Max Gust Speed 39 mph    
Visibility 10 miles    
Events      
Averages and records for this station are not official NWS values.
T = Trace of Precipitation, MM = Missing Value Source: NWS Daily Summary

Daily Weather History Graph

Daily Weather History Graph

Search for Another Location

Airport or City:

Trip Planner

Search our weather history database for the weather conditions in past years. The results will help you decide how hot, cold, wet, or windy it might be!

Date:

Astronomy

Jan. 06, 2014 Rise Set
Actual Time 6:46 AM CST 5:03 PM CST
Civil Twilight 6:20 AM CST 5:29 PM CST
Nautical Twilight 5:50 AM CST 5:59 PM CST
Astronomical Twilight 5:21 AM CST 6:28 PM CST
Moon 10:28 AM CST (1/6) 11:07 PM CST (1/6)
Length of Visible Light 11h 09m
Length of Day
10h 16m
Waxing Crescent, 35% of the Moon is Illuminated
Jan 6
Waxing Crescent
Jan 7
First Quarter
Jan 15
Full
Jan 23
Last Quarter
Jan 30
New

Hourly Weather History & Observations

Time (CST) Temp. Windchill Dew Point Humidity Pressure Visibility Wind Dir Wind Speed Gust Speed Precip Events Conditions
12:25 AM 50.0 °F - 46.9 °F 89% 29.96 in 10.0 mi North 18.4 mph 27.6 mph 0.00 in   Overcast
12:44 AM 48.9 °F - 45.0 °F 86% 29.97 in 10.0 mi NNW 18.4 mph 39.1 mph 0.00 in   Overcast
12:56 AM 48.0 °F - 44.1 °F 86% 29.99 in 10.0 mi NNW 16.1 mph 32.2 mph 0.00 in   Overcast
1:12 AM 46.9 °F - 42.1 °F 83% 30.00 in 10.0 mi NNW 18.4 mph 31.1 mph N/A   Overcast
1:40 AM 45.0 °F 37.4 °F 39.0 °F 80% 30.01 in 10.0 mi NNW 18.4 mph 28.8 mph N/A   Overcast
1:56 AM 43.0 °F 33.5 °F 37.9 °F 82% 30.03 in 10.0 mi NNW 24.2 mph 32.2 mph N/A   Overcast
2:56 AM 39.0 °F 30.3 °F 34.0 °F 82% 30.08 in 10.0 mi North 16.1 mph 24.2 mph 0.00 in   Overcast
3:56 AM 36.0 °F 26.0 °F 28.9 °F 76% 30.13 in 10.0 mi North 17.3 mph 31.1 mph N/A   Overcast
4:56 AM 33.1 °F 20.9 °F 24.1 °F 70% 30.17 in 10.0 mi North 21.9 mph 35.7 mph N/A   Mostly Cloudy
5:56 AM 32.0 °F 19.2 °F 23.0 °F 69% 30.22 in 10.0 mi NNW 23.0 mph 36.8 mph N/A   Mostly Cloudy
6:56 AM 30.9 °F 20.2 °F 21.9 °F 69% 30.26 in 10.0 mi NNW 15.0 mph 28.8 mph N/A   Mostly Cloudy
7:08 AM 30.0 °F 18.3 °F 21.9 °F 72% 30.26 in 10.0 mi NNW 17.3 mph 28.8 mph N/A   Mostly Cloudy
7:56 AM 30.9 °F 19.8 °F 21.0 °F 67% 30.31 in 10.0 mi North 16.1 mph 32.2 mph N/A   Clear
8:25 AM 34.0 °F 22.1 °F 21.0 °F 59% 30.32 in 10.0 mi NNW 21.9 mph 29.9 mph N/A   Mostly Cloudy
8:56 AM 33.1 °F 22.6 °F 21.0 °F 61% 30.34 in 10.0 mi NNW 16.1 mph 26.5 mph N/A   Mostly Cloudy
9:56 AM 36.0 °F 26.3 °F 21.0 °F 55% 30.37 in 10.0 mi NNW 16.1 mph 23.0 mph N/A   Mostly Cloudy
10:56 AM 36.0 °F 26.0 °F 19.0 °F 50% 30.38 in 10.0 mi North 17.3 mph 24.2 mph N/A   Mostly Cloudy
11:56 AM 39.0 °F 31.8 °F 16.0 °F 39% 30.35 in 10.0 mi NNW 11.5 mph 25.3 mph N/A   Mostly Cloudy
12:56 PM 39.9 °F 32.1 °F 16.0 °F 38% 30.35 in 10.0 mi NNW 13.8 mph 20.7 mph N/A   Mostly Cloudy
1:56 PM 39.0 °F 30.3 °F 14.0 °F 36% 30.36 in 10.0 mi NNW 16.1 mph 26.5 mph N/A   Mostly Cloudy
2:56 PM 39.0 °F 30.3 °F 7.0 °F 27% 30.37 in 10.0 mi NNW 16.1 mph 25.3 mph N/A   Mostly Cloudy
3:56 PM 36.0 °F 27.5 °F 8.1 °F 31% 30.40 in 10.0 mi NNW 12.7 mph 21.9 mph N/A   Mostly Cloudy
4:56 PM 33.1 °F 24.4 °F 5.0 °F 31% 30.43 in 10.0 mi NW 11.5 mph 19.6 mph N/A   Mostly Cloudy
5:56 PM 32.0 °F 23.0 °F 5.0 °F 32% 30.46 in 10.0 mi NNW 11.5 mph 20.7 mph N/A   Mostly Cloudy
6:56 PM 30.0 °F 19.5 °F 3.0 °F 32% 30.50 in 10.0 mi NNW 13.8 mph 21.9 mph N/A   Mostly Cloudy
7:56 PM 28.9 °F 19.2 °F 5.0 °F 36% 30.54 in 10.0 mi NNW 11.5 mph 18.4 mph N/A   Mostly Cloudy
8:56 PM 28.0 °F 17.5 °F 3.0 °F 34% 30.54 in 10.0 mi NNW 12.7 mph 18.4 mph N/A   Mostly Cloudy
9:56 PM 27.0 °F 16.7 °F 3.0 °F 36% 30.53 in 10.0 mi NNW 11.5 mph 20.7 mph N/A   Mostly Cloudy
10:56 PM 26.1 °F 16.2 °F 3.0 °F 37% 30.54 in 10.0 mi NNW 10.4 mph 20.7 mph N/A   Clear
11:56 PM 25.0 °F 13.6 °F 1.9 °F 37% 30.56 in 10.0 mi NNW 12.7 mph 19.6 mph N/A   Clear